Powrót do katalogu

USA 328

AktywnyMilitariaVLEO
NORAD 52889·PAYLOAD·🇺🇸 United States

Wystrzelony Jun 19, 2022 z Cape Canaveral Space Force Station

Loading…

Następne Przeloty (najbliższe 24 godziny)

TLE

NieaktualneSource: Mike McCants

Epoka: Jan 2, 2025, 18:09 UTC

1 52889U 22064B   25002.75667207 0.00000100  00000-0  55176-5 0    08
2 52889  52.9976 332.8121 0008807 170.7245 189.2754 15.13418871    06

Śledź USA 328 w czasie rzeczywistym z AllMySat

Download on the App Store